Location: Bellflower
(33.8817°N, 118.1170°W)
Time: 13:45:51
(UTC+00:00)

OAO 2 Rocket - Pass Details

Date: 23 November 2020
Orbit: 676 x 745 km, 35.0° (Epoch: 21 January)

Event Time Altitude Azimuth Distance (km) Brightness Sun altitude
Exits shadow 13:21:31 13° 242° (WSW) 1,944 5.2 -14.8°
Maximum altitude 13:25:58 65° 162° (SSE) 776 3.7 -13.9°
Drops below altitude 10° 13:31:05 10° 81° (E) 2,204 7.0 -12.8°
Sets 13:33:33 0° 78° (ENE) 3,137 7.9 -12.4°
